TimeIST,TemperatureF,Dew PointF,Humidity,Sea Level PressureIn,VisibilityMPH,Wind Direction,Wind SpeedMPH,Gust SpeedMPH,PrecipitationIn,Events,Conditions,WindDirDegrees,DateUTC
12:10 AM,80.6,73.4,79,29.83,3.7,SSW,5.8,-,N/A,,Partly Cloudy,200,2012-10-04 18:40:00
12:40 AM,80.6,73.4,79,29.83,3.7,SSW,5.8,-,N/A,,Partly Cloudy,210,2012-10-04 19:10:00
1:10 AM,80.6,73.4,79,29.83,3.7,SSW,4.6,-,N/A,,Partly Cloudy,210,2012-10-04 19:40:00
1:40 AM,80.6,73.4,79,29.83,3.7,Calm,Calm,-,N/A,,Partly Cloudy,0,2012-10-04 20:10:00
2:10 AM,80.6,73.4,79,29.83,3.7,Calm,Calm,-,N/A,,Partly Cloudy,0,2012-10-04 20:40:00
2:30 AM,80,72,71,29.80,2,SSW,2.3,,,,Haze,200,2012-10-04 21:00:00
2:40 AM,80.6,71.6,74,29.80,3.7,SSW,3.5,-,N/A,,Partly Cloudy,200,2012-10-04 21:10:00
3:10 AM,80.6,71.6,74,29.80,3.7,SSW,3.5,-,N/A,,Partly Cloudy,200,2012-10-04 21:40:00
4:10 AM,80.6,71.6,74,29.80,3.7,Variable,2.3,-,N/A,,Partly Cloudy,0,2012-10-04 22:40:00
6:10 AM,78.8,71.6,78,29.83,3.7,NW,6.9,-,N/A,,Partly Cloudy,310,2012-10-05 00:40:00
7:10 AM,78.8,71.6,78,29.83,3.7,West,9.2,-,N/A,,Partly Cloudy,280,2012-10-05 01:40:00
7:40 AM,80.6,71.6,74,29.83,3.7,WNW,13.8,-,N/A,,Partly Cloudy,290,2012-10-05 02:10:00
8:10 AM,82.4,71.6,70,29.86,3.7,West,12.7,-,N/A,,Partly Cloudy,280,2012-10-05 02:40:00
8:30 AM,84,70,53,29.86,2,WNW,13.8,,,,Haze,290,2012-10-05 03:00:00
8:40 AM,84.2,69.8,62,29.86,3.7,WNW,12.7,-,N/A,,Unknown,290,2012-10-05 03:10:00
9:10 AM,86.0,71.6,62,29.86,5.0,West,11.5,-,N/A,,Unknown,280,2012-10-05 03:40:00
9:40 AM,87.8,69.8,55,29.86,5.0,WNW,10.4,-,N/A,,Unknown,290,2012-10-05 04:10:00
10:10 AM,89.6,69.8,52,29.86,5.0,WNW,10.4,-,N/A,,Unknown,300,2012-10-05 04:40:00
10:40 AM,91.4,69.8,49,29.86,6.2,NW,10.4,-,N/A,,Partly Cloudy,310,2012-10-05 05:10:00
11:10 AM,93.2,69.8,46,29.86,6.2,West,9.2,-,N/A,,Partly Cloudy,270,2012-10-05 05:40:00
11:30 AM,75,68,72,29.82,6,West,6.9,,,,Scattered Clouds,270,2012-10-05 06:00:00
11:40 AM,93.2,69.8,46,29.83,6.2,WNW,6.9,-,N/A,,Partly Cloudy,300,2012-10-05 06:10:00
12:10 PM,93.2,69.8,46,29.80,6.2,WNW,5.8,-,N/A,,Partly Cloudy,300,2012-10-05 06:40:00
12:40 PM,95.0,69.8,44,29.80,6.2,West,4.6,-,N/A,,Partly Cloudy,270,2012-10-05 07:10:00
1:10 PM,95.0,69.8,44,29.77,6.2,SW,5.8,-,N/A,,Partly Cloudy,230,2012-10-05 07:40:00
1:40 PM,96.8,69.8,41,29.77,6.2,SW,3.5,-,N/A,,Partly Cloudy,220,2012-10-05 08:10:00
2:10 PM,96.8,69.8,41,29.74,6.2,South,5.8,-,N/A,,Partly Cloudy,180,2012-10-05 08:40:00
2:30 PM,99,67,26,29.72,6,NE,2.3,,,,Scattered Clouds,50,2012-10-05 09:00:00
2:40 PM,98.6,69.8,39,29.74,6.2,NNW,3.5,-,N/A,,Partly Cloudy,330,2012-10-05 09:10:00
3:10 PM,98.6,68.0,37,29.74,6.2,ESE,6.9,-,N/A,,Partly Cloudy,120,2012-10-05 09:40:00
3:40 PM,98.6,68.0,37,29.71,6.2,East,8.1,-,N/A,,Partly Cloudy,90,2012-10-05 10:10:00
4:10 PM,96.8,69.8,41,29.71,6.2,East,8.1,-,N/A,,Partly Cloudy,90,2012-10-05 10:40:00
4:40 PM,-9999,-9999,N/A,-9999,6.2,NE,3.5,-,N/A,,Partly Cloudy,40,2012-10-05 11:10:00
5:10 PM,95.0,71.6,47,29.74,6.2,NE,3.5,-,N/A,,Partly Cloudy,40,2012-10-05 11:40:00
5:40 PM,95.0,71.6,47,29.74,5.0,South,3.5,-,N/A,,Partly Cloudy,180,2012-10-05 12:10:00
6:10 PM,95.0,71.6,47,29.74,5.0,South,4.6,-,N/A,,Partly Cloudy,180,2012-10-05 12:40:00
6:40 PM,91.4,71.6,52,29.74,5.0,SE,8.1,-,N/A,,Partly Cloudy,140,2012-10-05 13:10:00
7:10 PM,89.6,71.6,55,29.77,3.7,SSE,12.7,-,N/A,,Partly Cloudy,150,2012-10-05 13:40:00
7:40 PM,89.6,71.6,55,29.77,3.7,South,13.8,-,N/A,,Partly Cloudy,170,2012-10-05 14:10:00
8:10 PM,86.0,75.2,70,29.80,3.7,SSE,9.2,-,N/A,,Partly Cloudy,160,2012-10-05 14:40:00
8:30 PM,86,75,62,29.82,2,South,9.2,,,,Haze,180,2012-10-05 15:00:00
8:40 PM,86.0,75.2,70,29.83,3.7,South,8.1,-,N/A,,Partly Cloudy,190,2012-10-05 15:10:00
9:10 PM,86.0,75.2,70,29.83,3.7,South,8.1,-,N/A,,Partly Cloudy,180,2012-10-05 15:40:00
9:40 PM,86.0,75.2,70,29.83,3.7,South,6.9,-,N/A,,Partly Cloudy,180,2012-10-05 16:10:00
10:10 PM,84.2,75.2,74,29.86,3.7,South,5.8,-,N/A,,Partly Cloudy,180,2012-10-05 16:40:00
10:40 PM,84.2,75.2,74,29.86,3.7,South,5.8,-,N/A,,Partly Cloudy,180,2012-10-05 17:10:00
11:10 PM,84.2,75.2,74,29.86,3.7,SSW,4.6,-,N/A,,Partly Cloudy,200,2012-10-05 17:40:00
11:30 PM,83,74,69,29.86,2,SSW,4.6,,,,Haze,200,2012-10-05 18:00:00
11:40 PM,82.4,75.2,79,29.86,3.7,South,4.6,-,N/A,,Partly Cloudy,190,2012-10-05 18:10:00